Lynchburg, VA

7:05 PM EST on November 15, 2019 (GMT -0500)
Lynchburg Regional-Glenn

Weather History for KLYH - September, 2019

Change the Weather History Date:

Sunday, September 29, 2019

  Actual Average Record
Temperature  
Mean Temperature 80 °F 62 °F  
Max Temperature 95 °F 73 °F 95 °F (2019)
Min Temperature 65 °F 50 °F 35 °F (1942)
Degree Days  
Heating Degree Days 0 5  
Month to date heating degree days 5 50  
Since 1 July heating degree days 5 53  
Cooling Degree Days 15 1  
Month to date cooling degree days 289 116  
Year to date cooling degree days 1504 1014  
Growing Degree Days 30 (Base 50)    
Moisture  
Dew Point 67 °F    
Average Humidity 68    
Maximum Humidity 100    
Minimum Humidity 36    
Precipitation  
Precipitation 0.02 in 0.13 in 3.84 in (1999)
Month to date precipitation 0.08 3.76  
Year to date precipitation 27.66 31.69  
Snow  
Snow 0.00 in - - ()
Month to date snowfall 0.0  
Since 1 July snowfall 0.0  
Since 1 September snowfall 0.0  
Snow Depth 0.00 in    
Sea Level Pressure  
Sea Level Pressure 30.18 in    
Wind  
Wind Speed 2 mph (NNE)    
Max Wind Speed 20 mph    
Max Gust Speed 31 mph    
Visibility 6 miles    
Events Fog , Rain , Thunderstorm    
T = Trace of Precipitation, MM = Missing Value Source: NWS Daily Summary

Daily Weather History Graph

Daily Weather History Graph

Search for Another Location

Airport or City:

Astronomy

Sep. 29, 2019 Rise Set
Actual Time 7:10 AM EDT 7:03 PM EDT
Civil Twilight 6:44 AM EDT 7:29 PM EDT
Nautical Twilight 6:14 AM EDT 7:59 PM EDT
Astronomical Twilight 5:43 AM EDT 8:30 PM EDT
Moon 7:58 AM EDT (9/29) 8:03 PM EDT (9/29)
Length of Visible Light 12h 45m
Length of Day
11h 53m
New Moon, 1% of the Moon is Illuminated
Sep 29
New Moon
Oct 5
First Quarter
Oct 13
Full
Oct 21
Last Quarter
Oct 27
New

Hourly Weather History & Observations

Time (EDT) Temp. Heat Index Dew Point Humidity Pressure Visibility Wind Dir Wind Speed Gust Speed Precip Events Conditions
12:04 AM 70.0 °F - 70.0 °F 100% 30.16 in 5.0 mi Calm Calm - N/A   Clear
12:54 AM 69.1 °F - 68.0 °F 96% 30.13 in 5.0 mi Calm Calm - N/A   Clear
1:03 AM 69.1 °F - 68.0 °F 96% 30.16 in 1.8 mi Calm Calm - N/A   Clear
1:18 AM 69.1 °F - 68.0 °F 96% 30.16 in 3.0 mi Calm Calm - N/A   Clear
1:54 AM 69.1 °F - 68.0 °F 96% 30.14 in 5.0 mi Calm Calm - N/A   Clear
2:41 AM 69.1 °F - 69.1 °F 100% 30.17 in 1.5 mi Calm Calm - N/A   Clear
2:45 AM 66.9 °F - 66.9 °F 100% 30.16 in 0.8 mi Calm Calm - N/A   Clear
2:54 AM 68.0 °F - 66.9 °F 96% 30.14 in 0.5 mi Calm Calm - N/A Fog Fog
3:10 AM 68.0 °F - 68.0 °F 100% 30.16 in 2.0 mi Calm Calm - N/A   Partly Cloudy
3:18 AM 69.8 °F - 68.0 °F 94% 30.16 in 5.0 mi Calm Calm - N/A   Partly Cloudy
3:40 AM 68.0 °F - 68.0 °F 100% 30.16 in 1.8 mi SSW 4.6 mph - N/A   Partly Cloudy
3:48 AM 66.2 °F - 66.2 °F 100% 30.16 in 0.8 mi SSW 4.6 mph - N/A   Mist
3:54 AM 68.0 °F - 66.9 °F 96% 30.14 in 0.5 mi Calm Calm - N/A Fog Fog
4:14 AM 68.0 °F - 68.0 °F 100% 30.16 in 1.0 mi Calm Calm - N/A   Mist
4:23 AM 68.0 °F - 66.9 °F 96% 30.16 in 1.0 mi Calm Calm - N/A   Mist
4:30 AM 68.0 °F - 66.9 °F 96% 30.17 in 0.8 mi Calm Calm - N/A   Mist
4:54 AM 66.9 °F - 66.9 °F 100% 30.15 in 0.5 mi Calm Calm - N/A Fog Fog
4:59 AM 66.9 °F - 66.9 °F 100% 30.17 in 1.5 mi Calm Calm - N/A   Mostly Cloudy
5:01 AM 68.0 °F - 66.9 °F 96% 30.17 in 2.5 mi Calm Calm - N/A   Mostly Cloudy
5:04 AM 66.9 °F - 66.9 °F 100% 30.18 in 2.5 mi WNW 3.5 mph - N/A   Scattered Clouds
5:21 AM 68.0 °F - 68.0 °F 100% 30.17 in 1.2 mi Calm Calm - N/A   Clear
5:24 AM 66.9 °F - 66.9 °F 100% 30.17 in 0.8 mi Calm Calm - N/A   Mist
5:35 AM 66.0 °F - 66.0 °F 100% 30.18 in 0.2 mi North 3.5 mph - N/A Fog Fog
5:42 AM 66.0 °F - 66.0 °F 100% 30.18 in 1.0 mi Calm Calm - N/A   Mist
5:44 AM 66.0 °F - 66.0 °F 100% 30.18 in 2.0 mi Calm Calm - N/A   Partly Cloudy
5:51 AM 68.0 °F - 66.2 °F 94% 30.18 in 4.0 mi Calm Calm - N/A   Partly Cloudy
5:54 AM 66.9 °F - 66.9 °F 100% 30.15 in 2.5 mi Calm Calm - N/A   Partly Cloudy
6:08 AM 68.0 °F - 68.0 °F 100% 30.18 in 6.0 mi Calm Calm - N/A   Clear
6:19 AM 68.0 °F - 66.9 °F 96% 30.18 in 1.8 mi Calm Calm - N/A   Clear
6:29 AM 68.0 °F - 66.9 °F 96% 30.19 in 3.0 mi Calm Calm - N/A   Clear
7:54 AM 72.0 °F - 68.0 °F 87% 30.19 in 10.0 mi North 5.8 mph - N/A   Clear
8:54 AM 75.9 °F - 69.1 °F 79% 30.21 in 10.0 mi North 5.8 mph - N/A   Clear
9:54 AM 82.9 °F 85.4 °F 66.9 °F 58% 30.23 in 10.0 mi NE 5.8 mph - N/A   Clear
10:54 AM 86.0 °F 88.8 °F 66.9 °F 53% 30.23 in 10.0 mi Variable 4.6 mph - N/A   Clear
11:54 AM 89.1 °F 91.3 °F 66.0 °F 46% 30.22 in 10.0 mi North - - N/A   Clear
12:54 PM 90.0 °F 92.4 °F 66.0 °F 45% 30.20 in 10.0 mi Variable 5.8 mph - N/A   Clear
1:54 PM 91.9 °F 92.9 °F 63.0 °F 38% 30.17 in 10.0 mi North 5.8 mph - N/A   Clear
2:54 PM 91.9 °F 92.9 °F 63.0 °F 38% 30.16 in 10.0 mi North 4.6 mph - N/A   Partly Cloudy
3:54 PM 93.9 °F 94.8 °F 62.1 °F 35% 30.14 in 10.0 mi Calm Calm - N/A   Partly Cloudy
4:54 PM 91.0 °F 91.9 °F 63.0 °F 39% 30.13 in 10.0 mi East 3.5 mph - N/A   Partly Cloudy
5:54 PM 90.0 °F 90.6 °F 63.0 °F 40% 30.13 in 10.0 mi East 5.8 mph - N/A   Scattered Clouds
6:54 PM 87.1 °F 88.9 °F 64.9 °F 48% 30.14 in 10.0 mi Calm Calm - N/A   Overcast
7:01 PM 84.9 °F 86.6 °F 64.9 °F 51% 30.19 in 10.0 mi North 6.9 mph - N/A Thunderstorm Overcast
7:32 PM 75.9 °F - 66.0 °F 71% 30.21 in 9.0 mi Variable 3.5 mph - 0.00 in Rain , Thunderstorm Light Thunderstorms and Rain
7:54 PM 72.0 °F - 68.0 °F 87% 30.19 in 10.0 mi SE 5.8 mph - 0.02 in Rain , Thunderstorm Light Thunderstorms and Rain
8:01 PM 72.0 °F - 68.0 °F 87% 30.22 in 10.0 mi East 5.8 mph - 0.00 in Rain , Thunderstorm Light Rain
8:21 PM 70.0 °F - 68.0 °F 93% 30.22 in 10.0 mi Calm Calm - 0.00 in   Scattered Clouds
8:54 PM 70.0 °F - 68.0 °F 93% 30.21 in 10.0 mi Calm Calm - 0.00 in   Clear
9:54 PM 71.1 °F - 69.1 °F 93% 30.22 in 10.0 mi North 4.6 mph - 0.00 in Rain Light Rain
10:54 PM 71.1 °F - 69.1 °F 93% 30.22 in 10.0 mi Calm Calm - 0.00 in   Clear
11:54 PM 71.1 °F - 69.1 °F 93% 30.22 in 10.0 mi Calm Calm - N/A   Clear